Regional Weather Roundup
Issued by NWS

Home | Current Version | Previous Version | Graphics & Text | Print | Product List | Glossary On
Versions: 1 2 3 4 5 6 7 8 9 10 11 12 13 14 15 16 17 18 19 20 21 22 23 24 25 26 27 28 29 30 31 32 33 34 35 36 37 38 39 40 41 42 43 44 45 46 47 48 49 50
000
ASUS43 KIND 241309
RWRIN

WEATHER ROUNDUP FOR INDIANA
NATIONAL WEATHER SERVICE INDIANAPOLIS IN
800 AM EST MON NOV 24 2014

NOTE: "FAIR" INDICATES FEW OR NO CLOUDS BELOW 12,000 FEET WITH NO
SIGNIFICANT WEATHER AND/OR OBSTRUCTIONS TO VISIBILITY.

* - STATION DOES NOT REPORT WEATHER SUCH AS PRECIPITATION OR FOG.

+ - STATION NOT QUALITY CONTROLLED BY THE NATIONAL WEATHER SERVICE.
    USE DATA WITH CAUTION...ESPECIALLY DEWPOINT AND RELATIVE
    HUMIDITY OBSERVATIONS.

INZ001>003-010>013-019-020-241400-
NORTHWEST INDIANA

CITY           SKY/WX    TMP DP  RH WIND       PRES   REMARKS
GARY /AIRPORT/ CLOUDY    50  50 100 SW8       29.09S FOG
KNOX *+        CLOUDY    50  49  95 CALM      29.09S
LA PORTE +     RAIN     N/A N/A N/A SW8       29.10S
MICHIGAN CITY+ DRIZZLE   48  48 100 SW5       29.09S
MONTICELLO +   CLOUDY    54  52  95 S16       29.10F
RENSSELAER +   DRIZZLE   50  50 100 W7        29.10S
VALPARAISO     RAIN      50  49  96 SW9       29.09F FOG

$$

LMZ046-743>745-241400-
SOUTHERN LAKE MICHIGAN

STATION/POSITION TIME  TEMP WIND        PRES
                       AIR  DIR/SP/G
                 (UTC) (F)  (DEG/KT/KT) (MB)
MICHIGAN CITY    1300   49  180/  9/ 11   N/A

$$

INZ004-005-014>016-021>024-241400-
NORTH CENTRAL INDIANA

CITY           SKY/WX    TMP DP  RH WIND       PRES   REMARKS
ELKHART        RAIN      50  50 100 SW3       29.10
GOSHEN         CLOUDY    65  52  62 S14       29.09F
LOGANSPORT +   CLOUDY    52  50  93 SW13G18   29.13S
PERU/GRISSOM   LGT RAIN  54  54 100 SW16      29.12F
ROCHESTER +    CLOUDY    55  55 100 S13G20    29.11S
SOUTH BEND     LGT RAIN  51  50  96 SW7       29.10S
WARSAW +       CLOUDY    54  52  94 S8G16     29.10F

$$

INZ006>009-017-018-025>027-241400-
NORTHEAST INDIANA

CITY           SKY/WX    TMP DP  RH WIND       PRES   REMARKS
ANGOLA *+      CLOUDY    54  43  66 SW12      29.11S
AUBURN +       RAIN      54  50  87 SW17G23   29.14S
FORT WAYNE     RAIN      54  51  90 SW21      29.15F
HUNTINGTON +   CLOUDY    54  50  86 SW15G23   29.13F

$$

INZ028-029-035-036-043>045-051>053-241400-
WEST CENTRAL INDIANA

CITY           SKY/WX    TMP DP  RH WIND       PRES   REMARKS
GREENCASTLE +  CLOUDY    52  50  93 W20G30    29.23R
LAFAYETTE      CLOUDY    54  50  86 SW22G36   29.11S
TERRE HAUTE    LGT RAIN  46  41  82 W26G36    29.30R

$$

INZ030>032-037>040-046>048-054>057-064-065-241400-
CENTRAL INDIANA

CITY           SKY/WX    TMP DP  RH WIND       PRES   REMARKS
CP ATTERBURY + MOCLDY    54  50  87 SW16G24   29.24R
COLUMBUS       LGT RAIN  54  54 100 MISG      29.28R FOG
FRANKFORT +    CLOUDY    54  54 100 S23       29.16R
INDIANAPOLIS   CLOUDY    52  47  83 SW22G31   29.19R
-EAGLE CREEK   MOCLDY    54  48  80 SW14G28   29.19R
KOKOMO *+      PTCLDY    54  48  82 SW14      29.14F
MARION +       LGT RAIN  54  54  97 SW17G23   29.16S
MT COMFORT *+  CLOUDY    55  48  76 SW20G25   29.20R
SHELBYVILLE    LGT RAIN  56  50  80 SW20G36   29.22F
ZIONSVILLE +   MOCLDY    54  48  80 SW20G29   29.18R

$$

INZ033-034-041-042-049-050-058-059-241400-
EAST CENTRAL INDIANA

CITY           SKY/WX    TMP DP  RH WIND       PRES   REMARKS
MUNCIE         MOCLDY    56  50  80 SW23G32   29.16F

$$

INZ060-061-067>069-081>083-085>088-241400-
SOUTHWEST INDIANA

CITY           SKY/WX    TMP DP  RH WIND       PRES   REMARKS
EVANSVILLE     LGT RAIN  49  44  83 W21G39    29.45R
HUNTINGBURG *+ CLOUDY    50  45  81 W25G38    29.40R
WASHINGTON +   CLOUDY    47  45  91 W24G38    29.36R

$$

INZ062-063-066-070>080-084-089>092-241400-
SOUTH CENTRAL AND SOUTHEAST INDIANA

CITY           SKY/WX    TMP DP  RH WIND       PRES   REMARKS
BLOOMINGTON    CLOUDY    55  50  83 SW22G35   29.26R

$$



USA.gov is the U.S. government's official web portal to all federal, state and local government web resources and services.